Location: Demre
(36.2444°N, 29.9850°E)
Time: 05:55:13
(UTC+00:00)

Cosmos 921 Rocket - Pass Details

Date: 11 March 2026
Orbit: 563 x 620 km, 75.8° (Epoch: 21 April)

Event Time Altitude Azimuth Distance (km) Brightness Sun altitude
Rises 17:20:40 0° 203° (SSW) 2,744 6.6 -16.3°
Reaches altitude 10° 17:22:52 10° 207° (SSW) 1,856 5.7 -16.7°
Maximum altitude 17:26:55 58° 287° (WNW) 668 3.5 -17.5°
Drops below altitude 10° 17:31:04 10° 7° (N) 1,895 5.6 -18.4°
Sets 17:33:20 0° 11° (NNE) 2,808 6.4 -18.8°
